TimeEST,TemperatureF,Dew PointF,Humidity,Sea Level PressureIn,VisibilityMPH,Wind Direction,Wind SpeedMPH,Gust SpeedMPH,PrecipitationIn,Events,Conditions,WindDirDegrees,DateUTC
12:54 AM,15.1,12.0,88,30.21,10.0,SW,4.6,-,N/A,,Scattered Clouds,220,2013-12-27 05:54:00
1:54 AM,17.1,12.9,84,30.21,10.0,SW,8.1,-,N/A,,Overcast,220,2013-12-27 06:54:00
2:54 AM,17.1,12.9,84,30.22,10.0,WSW,3.5,-,N/A,,Overcast,240,2013-12-27 07:54:00
3:54 AM,12.9,10.0,88,30.22,10.0,West,3.5,-,N/A,,Clear,270,2013-12-27 08:54:00
4:54 AM,12.0,9.0,88,30.23,10.0,NW,3.5,-,N/A,,Clear,320,2013-12-27 09:54:00
5:54 AM,1.0,-0.0,95,30.25,10.0,Calm,Calm,-,N/A,,Clear,0,2013-12-27 10:54:00
6:15 AM,1.9,-2.0,83,30.21,10.0,Calm,Calm,-,N/A,,Mostly Cloudy,0,2013-12-27 11:15:00
6:51 AM,3.2,1.4,92,30.22,10.0,Calm,Calm,-,N/A,,Scattered Clouds,0,2013-12-27 11:51:00
6:54 AM,3.0,-0.0,87,30.27,10.0,Calm,Calm,-,N/A,,Scattered Clouds,0,2013-12-27 11:54:00
7:03 AM,1.0,-2.9,83,30.22,10.0,Calm,Calm,-,N/A,,Mostly Cloudy,0,2013-12-27 12:03:00
7:14 AM,3.0,-0.0,87,30.22,10.0,WSW,3.5,-,N/A,,Scattered Clouds,250,2013-12-27 12:14:00
7:54 AM,-2.9,-6.0,87,30.27,10.0,Calm,Calm,-,N/A,,Clear,0,2013-12-27 12:54:00
8:54 AM,-0.0,-2.9,88,30.27,10.0,Calm,Calm,-,N/A,,Partly Cloudy,0,2013-12-27 13:54:00
9:11 AM,1.0,-0.9,91,30.23,8.0,Calm,Calm,-,N/A,,Mostly Cloudy,0,2013-12-27 14:11:00
9:41 AM,1.9,1.0,96,30.23,9.0,Calm,Calm,-,N/A,,Scattered Clouds,0,2013-12-27 14:41:00
9:54 AM,5.0,3.9,95,30.27,10.0,South,3.5,-,N/A,,Clear,180,2013-12-27 14:54:00
10:54 AM,12.9,10.9,92,30.26,10.0,South,5.8,-,N/A,,Clear,180,2013-12-27 15:54:00
11:54 AM,21.0,14.0,74,30.24,10.0,SSW,9.2,-,N/A,,Clear,200,2013-12-27 16:54:00
12:54 PM,24.1,12.9,62,30.21,10.0,SSW,8.1,-,N/A,,Clear,210,2013-12-27 17:54:00
1:54 PM,25.0,14.0,63,30.17,10.0,South,8.1,-,N/A,,Mostly Cloudy,190,2013-12-27 18:54:00
2:54 PM,26.1,16.0,66,30.14,10.0,South,6.9,-,N/A,,Mostly Cloudy,180,2013-12-27 19:54:00
3:54 PM,27.0,18.0,69,30.13,10.0,SSW,8.1,-,N/A,,Mostly Cloudy,200,2013-12-27 20:54:00
4:54 PM,26.1,19.0,75,30.09,10.0,South,10.4,-,N/A,,Overcast,190,2013-12-27 21:54:00
5:54 PM,26.1,19.9,78,30.06,10.0,South,11.5,-,N/A,,Scattered Clouds,190,2013-12-27 22:54:00
6:29 PM,27.0,21.9,81,29.97,10.0,SSW,15.0,24.2,N/A,,Mostly Cloudy,210,2013-12-27 23:29:00
6:54 PM,28.0,24.1,85,30.00,9.0,SSW,15.0,-,N/A,,Overcast,210,2013-12-27 23:54:00
7:54 PM,30.0,26.1,85,29.96,7.0,SSW,10.4,19.6,N/A,,Overcast,210,2013-12-28 00:54:00
8:28 PM,30.0,26.1,85,29.89,6.0,SSW,12.7,-,N/A,,Overcast,200,2013-12-28 01:28:00
8:54 PM,30.9,27.0,85,29.92,7.0,SSW,13.8,-,N/A,,Overcast,210,2013-12-28 01:54:00
9:54 PM,32.0,27.0,82,29.91,7.0,SW,11.5,19.6,N/A,,Overcast,220,2013-12-28 02:54:00
10:54 PM,34.0,28.0,79,29.89,9.0,SW,11.5,-,N/A,,Overcast,230,2013-12-28 03:54:00
11:54 PM,34.0,28.0,79,29.88,10.0,SW,9.2,-,N/A,,Overcast,230,2013-12-28 04:54:00